Wind_Speed
5 7 8 9 11 12 13 14 15 16 17 18 18 19 19 20 20 21 21 22 22 23 24 25 25 26 26 27 27 28 28 28 29 30 31 32 32 32 32 32 31 31 31
8 10 11 12 13 14 15 16 17 18 18 19 20 20 21 22 22 23 24 25 25 26 27 27 28 29 30 30 31 31 32 32 33 34 35 36 36 36 35 36 36 36 35
11 12 13 14 15 16 16 17 18 19 20 20 21 22 23 24 24 25 26 27 28 29 30 30 31 32 33 34 35 35 36 36 37 38 39 40 41 41 40 40 40 40 40
12 13 14 15 16 16 17 18 20 21 21 22 23 24 25 26 27 28 29 30 31 32 33 33 34 35 36 37 38 39 40 40 41 42 43 44 45 46 46 45 45 45 45
13 14 15 15 17 18 19 20 21 22 23 24 24 25 27 28 29 31 32 33 34 35 35 36 37 38 39 40 41 42 43 44 45 46 47 48 49 50 51 51 51 51 50
13 14 15 17 18 19 20 21 22 23 24 25 27 28 29 30 32 33 34 35 36 37 38 39 40 42 43 44 45 46 47 48 49 50 51 52 54 55 56 56 56 56 56
14 15 17 18 19 20 21 22 24 25 26 27 29 30 31 33 34 35 36 37 38 39 41 42 43 45 46 47 49 50 51 52 54 55 56 57 58 59 60 61 62 62 62
15 16 18 19 20 21 23 24 25 26 28 29 30 32 33 34 36 37 38 40 41 42 43 45 47 48 49 51 52 53 55 57 58 60 62 64 65 66 67 68 68 68 68
16 18 19 20 21 22 24 25 26 27 29 30 32 33 34 36 37 39 40 41 43 44 46 48 49 51 53 54 56 58 59 61 63 65 67 69 71 73 75 76 76 76 76
17 19 20 21 22 23 24 26 27 28 30 31 32 34 35 37 38 39 41 43 44 46 48 50 52 53 55 57 59 61 63 66 68 71 73 76 78 80 81 83 84 84 84
18 20 21 22 23 24 25 26 28 29 30 32 33 34 36 37 39 41 42 44 46 48 50 51 53 55 57 60 62 64 67 69 73 76 79 82 84 86 88 90 91 92 91
19 20 21 23 23 24 26 27 28 30 31 33 34 36 37 39 40 42 44 46 47 49 51 53 55 57 59 61 64 66 69 73 77 80 84 87 89 92 95 96 97 98 97
20 21 22 23 24 25 26 28 29 31 32 34 35 37 38 40 42 43 45 47 49 50 52 54 56 58 60 63 66 68 72 76 80 83 86 89 92 94 95 95 95 96 97
20 21 22 24 25 26 28 29 30 32 34 35 37 38 40 42 43 45 46 48 50 51 53 55 57 59 62 64 67 70 74 78 82 85 88 90 91 90 89 87 87 88 90
20 22 23 25 26 27 28 30 32 33 35 37 38 40 41 43 44 46 48 49 51 52 54 56 58 60 63 66 69 72 76 80 84 86 88 88 87 85 83 81 79 79 80
21 22 24 25 27 28 29 31 33 34 36 38 39 41 42 44 45 47 49 50 51 53 55 57 59 61 64 67 70 74 78 82 85 86 86 85 83 81 79 77 75 75 76
21 23 24 26 27 29 30 32 34 35 37 39 40 42 43 45 46 48 50 51 53 54 56 58 61 63 65 68 72 76 79 82 84 84 83 82 80 77 76 74 73 73 74
22 23 24 26 27 29 31 33 35 36 38 40 41 43 45 46 48 49 51 53 54 56 58 60 62 65 67 70 73 77 80 81 82 81 80 78 76 75 73 71 70 70 71
22 23 25 26 27 29 31 33 35 37 39 41 43 44 46 48 49 50 52 54 56 58 59 62 64 66 68 71 74 77 79 79 79 78 76 75 74 73 71 69 68 68 69
23 24 25 27 28 30 32 34 36 39 41 43 44 46 48 49 51 52 53 55 57 59 61 63 66 68 70 72 75 77 77 77 77 75 74 73 71 70 68 66 65 65 66
25 26 27 28 30 31 33 35 38 40 42 44 46 48 50 51 53 54 55 57 59 61 63 65 67 69 72 74 75 76 75 74 73 72 71 70 69 67 65 63 61 60 60
27 28 29 30 32 33 35 37 39 42 44 46 48 50 52 53 55 56 57 59 61 63 65 67 69 71 73 75 77 77 75 71 69 67 67 67 66 65 63 60 57 55 53
29 30 32 33 34 36 37 40 42 44 46 48 50 52 53 55 56 58 59 61 63 65 67 68 70 72 74 76 77 78 77 74 70 65 63 63 63 61 60 58 54 51 48
32 33 34 36 37 39 40 42 45 47 48 50 52 54 55 57 58 60 61 63 65 67 68 70 72 73 74 75 76 76 76 75 73 68 62 60 59 59 58 56 52 49 45
35 36 37 38 40 42 44 45 47 49 51 52 54 56 57 58 60 61 63 64 66 68 70 71 73 74 75 75 75 74 73 72 72 72 66 60 56 56 56 54 51 48 43
37 39 40 41 43 45 46 48 50 51 53 55 56 57 59 60 61 62 64 66 67 69 71 72 73 74 75 74 74 73 72 71 70 70 68 62 57 53 53 52 50 47 42
Wind_Direction
331 324 321 319 318 317 315 314 312 311 309 307 306 305 304 304 303 302 301 300 300 299 298 297 296 295 294 293 291 290 288 285 284 283 281 279 277 275 272 270 268 265 262
321 318 317 317 317 316 314 312 311 310 308 307 306 305 304 303 302 302 301 301 300 299 298 297 296 295 294 293 292 291 289 288 286 284 282 280 278 275 272 270 268 266 264
318 317 317 316 315 313 312 311 310 309 308 307 305 304 304 303 302 301 301 300 299 298 297 296 296 295 294 293 292 291 290 288 287 284 283 281 279 276 273 270 268 266 264
317 316 316 315 314 313 312 311 310 308 307 306 305 305 304 303 302 301 300 299 298 297 296 296 295 294 293 292 291 290 289 288 286 284 282 281 279 277 275 271 268 266 264
316 316 315 315 314 313 311 310 309 308 307 307 306 305 304 303 302 302 301 300 298 297 296 295 294 293 292 291 290 289 287 286 285 283 281 280 278 277 275 273 270 267 264
315 314 314 313 312 311 310 309 308 308 307 306 305 305 305 304 303 303 302 301 299 298 297 296 295 294 292 291 290 289 287 286 284 283 281 279 277 275 274 273 271 268 264
313 313 313 312 311 310 310 309 308 308 307 307 306 306 306 305 305 304 303 302 301 299 298 296 295 294 292 291 290 288 287 286 284 283 280 278 276 274 272 271 269 267 265
313 313 313 312 311 311 310 309 309 308 308 308 309 308 308 307 307 306 305 303 302 300 299 298 297 295 294 293 292 290 289 288 286 284 281 279 276 274 272 270 267 265 264
313 313 313 313 312 312 311 311 310 310 311 311 311 311 310 310 309 308 306 305 304 302 301 300 299 297 296 295 294 292 291 290 289 287 285 283 280 277 274 272 269 266 264
313 314 315 314 314 314 314 314 314 314 314 314 314 314 313 312 311 310 309 308 306 305 303 302 301 299 298 298 297 295 294 293 293 292 290 288 285 282 279 275 272 268 265
314 316 316 316 316 317 317 317 318 318 318 318 318 317 316 315 314 313 312 311 309 308 306 304 303 302 301 300 299 298 298 297 296 295 294 292 289 286 283 279 274 271 266
316 317 318 318 319 320 320 321 321 321 320 320 319 319 318 317 317 316 315 314 312 310 309 307 305 304 303 302 302 301 301 300 299 298 297 294 292 289 285 281 276 271 266
318 320 320 321 322 322 323 323 323 322 322 321 320 320 319 319 318 317 316 315 314 312 311 309 307 306 305 304 303 303 303 303 302 301 299 297 294 290 286 282 276 271 265
321 321 322 323 324 324 324 323 323 323 322 321 321 320 320 319 318 317 316 316 315 314 312 310 309 307 306 306 305 305 305 305 304 303 301 298 295 291 287 283 277 271 265
322 323 323 323 323 323 323 323 323 323 323 322 322 321 320 319 318 317 317 316 316 315 313 312 311 309 308 308 307 308 307 307 306 305 302 299 296 292 288 282 277 271 265
322 323 323 323 323 323 324 324 324 324 323 323 322 322 320 319 319 318 317 317 317 316 315 314 313 311 310 310 310 310 309 309 308 306 304 301 298 293 288 283 277 271 265
321 321 322 323 323 324 324 324 324 324 323 323 323 322 321 320 319 318 318 318 317 317 316 315 315 314 313 312 312 312 312 311 310 308 306 303 299 295 290 286 280 273 266
319 320 321 322 323 324 325 325 325 325 324 324 324 323 322 321 320 319 319 319 319 318 318 317 316 316 315 315 315 315 314 313 312 310 307 305 301 298 293 288 282 275 268
315 317 318 320 322 324 325 326 326 327 326 326 325 324 324 323 322 321 321 321 321 320 320 319 319 318 318 318 318 318 317 315 314 312 310 307 305 301 297 292 285 278 271
311 314 317 319 321 323 325 325 326 327 327 327 327 326 325 325 324 323 323 322 322 322 322 321 321 320 320 320 320 320 319 318 316 314 312 311 308 305 302 296 290 283 275
309 311 314 317 319 321 323 324 325 326 327 327 327 326 326 326 325 325 324 324 324 324 324 324 323 322 322 322 322 322 321 320 318 317 315 313 311 309 306 302 296 289 280
306 309 311 314 316 319 321 322 323 324 325 326 326 326 326 325 325 325 325 325 325 326 325 325 325 324 324 324 324 324 324 323 320 319 317 316 314 312 311 308 302 295 286
304 306 309 311 313 315 317 319 321 322 323 323 324 325 325 325 325 325 325 325 326 327 327 326 326 326 325 325 325 325 325 325 324 324 321 319 317 315 314 311 307 301 291
303 305 307 309 311 313 315 317 319 320 321 322 322 323 324 324 324 325 325 326 327 328 328 327 327 327 327 326 326 326 325 325 325 326 326 323 320 318 317 315 311 306 298
301 303 305 307 309 311 313 315 317 318 319 321 321 321 322 323 323 324 325 326 327 328 328 328 328 327 327 327 327 326 326 326 326 327 328 327 324 321 319 317 314 311 303
300 302 304 306 308 310 312 313 315 316 317 319 320 320 321 321 322 323 324 325 327 328 328 328 328 328 328 328 327 327 327 326 326 326 327 328 327 325 321 318 317 314 308
Height
5868 5867 5866 5866 5865 5865 5864 5863 5863 5862 5861 5861 5860 5859 5858 5857 5857 5856 5855 5855 5854 5853 5853 5852 5852 5852 5852 5851 5852 5852 5853 5853 5853 5853 5853 5854 5855 5857 5858 5860 5861 5863 5865
5866 5865 5865 5864 5863 5862 5862 5861 5860 5859 5858 5857 5856 5855 5855 5854 5853 5852 5851 5850 5849 5849 5848 5847 5847 5846 5846 5846 5846 5846 5846 5846 5847 5847 5847 5847 5848 5850 5851 5853 5855 5856 5858
5864 5864 5863 5862 5861 5860 5859 5858 5857 5856 5855 5854 5853 5852 5851 5850 5849 5847 5846 5845 5844 5843 5843 5842 5841 5840 5840 5839 5839 5839 5839 5839 5839 5839 5839 5839 5840 5841 5843 5845 5847 5849 5850
5862 5862 5861 5860 5859 5858 5857 5855 5854 5853 5852 5850 5849 5848 5847 5845 5844 5843 5841 5840 5839 5838 5836 5835 5835 5834 5833 5832 5832 5831 5831 5831 5831 5831 5831 5831 5831 5832 5834 5836 5838 5840 5842
5861 5860 5858 5857 5856 5855 5854 5852 5851 5849 5848 5846 5845 5843 5842 5840 5839 5837 5836 5834 5832 5831 5830 5828 5827 5826 5825 5824 5823 5823 5822 5822 5821 5821 5821 5822 5821 5822 5823 5825 5827 5830 5832
5859 5858 5856 5855 5854 5852 5851 5849 5847 5846 5844 5842 5840 5838 5837 5835 5833 5831 5829 5827 5825 5824 5822 5820 5819 5817 5816 5815 5814 5813 5812 5811 5811 5810 5810 5810 5810 5810 5811 5812 5814 5817 5820
5857 5855 5854 5852 5851 5849 5847 5846 5844 5842 5840 5837 5835 5833 5831 5828 5826 5824 5822 5819 5817 5815 5813 5811 5809 5807 5805 5804 5802 5801 5800 5799 5798 5798 5797 5797 5797 5797 5797 5798 5800 5803 5806
5854 5853 5851 5850 5848 5846 5844 5842 5839 5837 5835 5832 5830 5827 5824 5822 5819 5816 5814 5811 5808 5806 5803 5801 5798 5796 5794 5791 5789 5788 5786 5784 5783 5782 5781 5780 5780 5780 5780 5782 5783 5786 5789
5852 5850 5848 5846 5844 5842 5840 5837 5835 5832 5829 5827 5824 5821 5818 5815 5812 5808 5805 5802 5799 5796 5793 5790 5787 5783 5780 5777 5775 5772 5770 5767 5765 5763 5762 5760 5759 5759 5759 5760 5762 5765 5769
5849 5847 5845 5843 5840 5838 5835 5833 5830 5827 5824 5821 5818 5814 5811 5807 5804 5800 5797 5793 5789 5786 5782 5778 5774 5770 5767 5763 5759 5756 5752 5749 5746 5743 5740 5737 5735 5734 5734 5734 5736 5738 5743
5846 5843 5841 5839 5836 5834 5831 5828 5825 5822 5818 5815 5811 5808 5804 5800 5796 5792 5788 5784 5779 5775 5771 5766 5762 5758 5753 5749 5744 5739 5735 5730 5726 5721 5717 5712 5709 5706 5704 5704 5705 5708 5712
5842 5840 5838 5835 5832 5830 5826 5823 5820 5816 5813 5809 5805 5801 5797 5793 5789 5784 5779 5775 5770 5765 5760 5755 5750 5745 5739 5734 5728 5723 5718 5712 5706 5700 5693 5687 5681 5676 5672 5670 5670 5673 5677
5839 5837 5834 5831 5828 5825 5822 5818 5815 5811 5807 5803 5799 5795 5790 5786 5781 5776 5771 5766 5760 5755 5749 5744 5738 5732 5726 5720 5714 5707 5701 5694 5686 5677 5669 5660 5651 5644 5638 5634 5633 5634 5638
5835 5833 5830 5827 5824 5821 5817 5814 5810 5806 5802 5797 5793 5788 5783 5778 5773 5768 5763 5757 5751 5745 5739 5733 5727 5720 5713 5707 5699 5692 5683 5674 5665 5655 5644 5633 5622 5613 5606 5601 5598 5598 5601
5832 5829 5826 5823 5820 5816 5813 5809 5805 5801 5796 5791 5786 5781 5776 5771 5765 5760 5754 5748 5742 5736 5729 5722 5715 5708 5701 5693 5684 5675 5665 5654 5643 5631 5619 5606 5594 5585 5577 5571 5568 5567 5568
5828 5825 5822 5819 5816 5812 5808 5804 5800 5795 5790 5785 5780 5774 5769 5763 5757 5751 5745 5739 5732 5725 5718 5711 5703 5696 5688 5679 5669 5658 5647 5634 5621 5607 5593 5580 5568 5558 5549 5544 5540 5539 5539
5825 5822 5818 5815 5811 5807 5803 5799 5794 5789 5784 5779 5773 5767 5761 5755 5749 5743 5736 5729 5722 5715 5707 5699 5691 5683 5674 5664 5653 5641 5628 5613 5598 5583 5569 5555 5543 5533 5523 5517 5512 5510 5510
5821 5817 5814 5810 5806 5802 5798 5793 5788 5783 5778 5772 5766 5760 5754 5747 5740 5733 5726 5719 5711 5703 5695 5687 5678 5669 5659 5648 5636 5622 5608 5592 5576 5561 5546 5532 5519 5508 5499 5491 5485 5482 5481
5817 5813 5810 5806 5802 5797 5793 5788 5783 5777 5771 5765 5759 5752 5745 5738 5731 5724 5716 5708 5700 5691 5683 5674 5664 5655 5644 5633 5620 5605 5588 5572 5555 5540 5525 5510 5497 5485 5474 5466 5459 5454 5453
5813 5809 5805 5801 5797 5792 5787 5782 5776 5770 5764 5758 5751 5744 5737 5729 5722 5714 5706 5697 5688 5679 5670 5660 5650 5638 5627 5616 5603 5588 5570 5552 5535 5519 5505 5490 5476 5463 5452 5442 5434 5428 5425
5808 5804 5800 5795 5791 5786 5781 5775 5769 5763 5757 5750 5743 5736 5728 5720 5712 5703 5694 5685 5676 5666 5656 5646 5635 5623 5610 5598 5586 5572 5556 5538 5519 5502 5486 5471 5457 5444 5431 5420 5412 5404 5400
5802 5798 5794 5789 5784 5779 5774 5768 5762 5756 5749 5742 5735 5727 5719 5710 5702 5693 5683 5673 5663 5653 5642 5631 5620 5607 5593 5579 5566 5553 5540 5528 5510 5491 5472 5455 5440 5427 5414 5402 5392 5384 5378
5796 5792 5787 5782 5777 5772 5766 5761 5754 5748 5741 5733 5726 5718 5709 5700 5691 5682 5672 5662 5651 5640 5628 5616 5604 5591 5577 5562 5546 5531 5516 5504 5494 5482 5463 5444 5427 5412 5399 5387 5377 5367 5360
5789 5785 5780 5775 5770 5764 5758 5752 5746 5739 5732 5724 5716 5708 5699 5690 5680 5671 5660 5650 5639 5627 5615 5602 5589 5576 5561 5546 5530 5513 5497 5481 5468 5461 5452 5433 5415 5399 5386 5374 5363 5354 5345
5782 5778 5773 5767 5762 5756 5750 5744 5737 5730 5723 5715 5706 5698 5689 5679 5670 5659 5649 5638 5626 5614 5602 5589 5575 5561 5546 5531 5515 5500 5484 5467 5451 5437 5430 5420 5406 5390 5374 5362 5351 5342 5334
5774 5770 5764 5759 5754 5747 5741 5734 5727 5720 5713 5704 5696 5687 5678 5668 5658 5648 5637 5626 5614 5602 5589 5575 5561 5547 5532 5516 5501 5485 5470 5455 5441 5425 5413 5403 5393 5381 5366 5352 5341 5332 5324